Regional Weather Roundup
Issued by NWS Upton, NY

Current Version | Previous Version | Graphics & Text | Print | Product List | Glossary Off
Versions: 1 2 3 4 5 6 7 8 9 10 11 12 13 14 15 16 17 18 19 20 21 22 23 24 25 26 27 28 29 30 31 32 33 34 35 36 37 38 39 40 41 42 43 44 45 46 47 48 49 50

000
ASUS41 KOKX 021718
RWROKX

REGIONAL WEATHER ROUNDUP
NATIONAL WEATHER SERVICE NEW YORK NY
100 PM EDT TUE JUN 02 2015

NOTE: "FAIR" INDICATES FEW OR NO CLOUDS BELOW 12,000 FEET WITH NO
SIGNIFICANT WEATHER AND/OR OBSTRUCTIONS TO VISIBILITY.

NYZ071-072-176-178-NJZ106-104-021800-
NEW YORK CITY METRO AREA


CITY           SKY/WX    TMP DP  RH WIND       PRES   REMARKS
CENTRAL PARK   CLOUDY    54  50  86 NE8       30.17S
LAGUARDIA APRT LGT RAIN  53  50  89 N8        30.14F
KENNEDY INTL   LGT RAIN  54  49  83 N14       30.15S
NEWARK/LIBERTY LGT RAIN  56  51  84 N14       30.15R
BRNX BOT. GARD   N/A     52  50  93 NE2       30.17R
TETERBORO      LGT RAIN  54  50  87 N6        30.14F
$$

NYZ177-179-078>081-021800-
LONG ISLAND NEW YORK

CITY           SKY/WX    TMP DP  RH WIND       PRES   REMARKS
FARMINGDALE    CLOUDY    53  49  86 NE10      30.15R
ISLIP          DRIZZLE   53  50  89 N14       30.12S
SHIRLEY        LGT RAIN  52  49  89 N7        30.14F
WESTHAMPTON    LGT RAIN  52  50  93 N9        30.15S
MONTAUK POINT    N/A     52  49  89 N7        30.15F
$$

NYZ052-065-067-021800-
HUDSON VALLEY

CITY           SKY/WX    TMP DP  RH WIND       PRES   REMARKS
WHITE PLAINS   LGT RAIN  51  48  89 N6        30.15R FOG
NEWBURGH       DRIZZLE   52  50  93 NE6       30.18S
MONTGOMERY     LGT RAIN  53  50  89 N3        30.17R
POUGHKEEPSIE   CLOUDY    55  48  77 N5        30.17R
ALBANY         CLOUDY    57  47  69 N5        30.18F
$$

NJZ001-105-106-008-010-013-015-019>022-104-021800-
NEW JERSEY

CITY           SKY/WX    TMP DP  RH WIND       PRES   REMARKS
NEWARK/LIBERTY LGT RAIN  56  51  84 N14       30.15R
TETERBORO      LGT RAIN  54  50  87 N6        30.14F
CALDWELL       RAIN      53  50  89 VRB5      30.16R FOG
MORRISTOWN     LGT RAIN  59  57  94 NE9       30.15F FOG
SOMERVILLE     LGT RAIN  56  52  86 VRB6      30.13S
SUSSEX         LGT RAIN  53  49  86 NE5       30.17S
ANDOVER          N/A     51  49  92 NE7       30.16S
TRENTON        LGT RAIN  54  51  90 NE8       30.13S
MILLVILLE      CLOUDY    57  54  89 N9        30.10S
ATLANTIC CITY  LGT RAIN  57  54  89 NE7       30.10S
WRIGHTSTOWN    CLOUDY    54  50  87 NE9       30.11R
TOMS RIVER     CLOUDY   N/A N/A N/A NE12      30.12F
BELMAR         CLOUDY    54  45  71 NE13      30.13S
$$

PAZ047>061-062-071-021800-
EASTERN PENNSYLVANIA

CITY           SKY/WX    TMP DP  RH WIND       PRES   REMARKS
PHILADELPHIA   LGT RAIN  56  51  84 NE10      30.13S
ALLENTOWN      HVY RAIN  54  50  87 N5        30.15S FOG
SCRANTON       LGT RAIN  56  51  84 CALM      30.15F
$$

CTZ002-004>006-009-010-012-RIZ004-006-007-MAZ004-011-015-021800-
SOUTHERN NEW ENGLAND
 IN CT

CITY           SKY/WX    TMP DP  RH WIND       PRES   REMARKS
BRADLEY INTL   CLOUDY    53  48  83 N12       30.17S
HARTFORD       LGT RAIN  52  47  83 N12       30.17S
DANBURY        LGT RAIN  51  46  83 NE3       30.18R
WTRBRY/OXFORD  CLOUDY    50  43  76 NE10      30.17S FOG
BRIDGEPORT     LGT RAIN  53  49  86 N9        30.16S
MERIDEN        LGT RAIN  52  47  83 N8        30.17R
NEW HAVEN      CLOUDY    52  48  86 N12       30.16R
CHESTER        LGT RAIN  52  48  87 N9        30.15S
GROTON         LGT RAIN  53  48  83 N14G21    30.13F
WILLIMANTIC    CLOUDY    51  47  86 NE12      30.17S

 IN RI

CITY           SKY/WX    TMP DP  RH WIND       PRES   REMARKS
PROVIDENCE     LGT RAIN  50  46  86 N15       30.17R
BLOCK ISLAND   CLOUDY    50  46  87 NE15G21   30.14S
WESTERLY       LGT RAIN  52  49  89 N12       30.14F

 IN MA

CITY           SKY/WX    TMP DP  RH WIND       PRES   REMARKS
BOSTON         LGT RAIN  48  46  93 NE15      30.20R
WORCESTER      LGT RAIN  47  44  90 NE9       30.17F
WESTFIELD      CLOUDY    52  47  83 N9        30.18S
PROVINCETOWN   CLOUDY    52  45  76 N13       30.16R
NANTUCKET      CLOUDY    55  50  83 N18       30.09S
$$

ANZ330-335-338-340-345-350-353-355-021800-
COASTAL MARINE OBSERVATIONS


STATION/POSITION TIME  SKY/WX   TEMP    WIND        PRES    VSBY  WAVE
                                AIR SEA DIR/SP/G                  HT/PER
                 (UTC)          (F)     (DEG/KT/KT) (MB)    (MI)  (FT/S)
NY HARB ENTRANCE 1650            53 55   30/ 12/ 14 1019.9          4/ 6
4S FIRE IS       1603               56                N/A           3/ 8
20S FIRE ISLAND  1650            53 58   40/ 17/ 21 1019.2          5/ 6
GREAT SOUTH BAY  1600            52 65   30/ 12/ 16   N/A
23SW MTP         1650            51 56   30/ 17/ 19 1019.7          5/ 6
HUDSON CANYON    NOT AVBL
KINGS POINT      1600            52 56   50/  4/  8 1020.4
CENTRAL LI SOUND 1600            51 56   40/ 12/ 14   N/A
EASTERN LI SOUND 1600            52      20/ 10/ 12   N/A
ROBBINS REEF     1600            53     360/ 10/ 12 1019.5
$$


>>>>>>>>>>>>>>>>>>>>>>>>>>>> KEY <<<<<<<<<<<<<<<<<<<<<<<<<<<
>                                                          <
>     SKY/WX - SKY CONDITION/PRESENT WEATHER               <
>     TMP    - TEMPERATURE IN FAHRENHEIT                   <
>     DP     - DEWPOINT IN FAHRENHEIT                      <
>     RH     - RELATIVE HUMIDITY IN PERCENT                <
>     WIND   - DIRECTION AND SPEED IN MPH                  <
>     PRES   - MEAN SEA LEVEL PRESSURE IN INCHES OF HG     <
>     WCI    - WIND CHILL INDEX                            <
>     VSB    - VISIBILITY IN MILES                         <
>     HX     - HEAT INDEX                                  <
>     TC     - TEMPERATURE IN CELSIUS                      <
>     VRB    - VARIABLE WIND DIRECTION                     <
>                                                          <
>>>>>>>>>>>>>>>>>>>>>>>>>>>> KEY <<<<<<<<<<<<<<<<<<<<<<<<<<<





USA.gov is the U.S. government's official web portal to all federal, state and local government web resources and services.